7 * 24
多渠道服务支持
STARLINK-37212(NORAD编号68566)是SpaceX星链(Starlink)卫星互联网星座中的一颗卫星,属于星链第二代组网批次卫星。星链项目旨在构建全球覆盖的低轨卫星互联网,为全球偏远地区、海洋等通信匮乏区域提供高速网络接入服务。该卫星运行在近地轨道,通过星间链路实现数据传输,支持全球宽带接入服务。作为星链大规模组网的组成部分,它承担着扩展星座覆盖范围、提升网络容量与服务稳定性的作用,延续了星链卫星批量制造发射、低成本部署的特点,支撑SpaceX构建全球低轨卫星通信网络的战略目标。
美国
(US)
| 数据来源 | 国际轨道数据 |
| 星历时间: | 2026-06-09T23:53:46+0800 20小时前 查看轨道信息 |
| 半长轴: | 6840.864km |
| 偏心率: | 0.0001288 |
| 轨道倾角: | 53.160° |
| 近地点辐角 | 95.479° |
| 升交点赤经 | 294.135° |
| 平近点角 | 264.636° |
| 近地点: | 461.845km |
| 远地点: | 463.609km |
| 周期: | 93.848分钟 |
| 每日圈数: | 15.343923 |